Powrót do katalogu

FLOCK 4G 21

AktywnyNaukaSSO
NORAD 62651·PAYLOAD·🇺🇸 United States

Wystrzelony Jan 14, 2025 z Vandenberg Space Force Base

Loading…

Następne Przeloty (najbliższe 24 godziny)

TLE

ŚwieżeSource: Space-Track

Epoka: Sep 14, 2026, 15:41 UTC

1 62651U 25009AU  26257.65409937  .00035788  00000-0  98881-3 0  9999
2 62651  97.3934 340.2821 0001509  32.4186 327.7151 15.36962797 92671

Śledź FLOCK 4G 21 w czasie rzeczywistym z AllMySat

Download on the App Store